Cochrane, Alberta

10:01 AM MST on November 22, 2017 (GMT -0700)
Cochrane

Weather History for 71860 - July, 2013

Change the Weather History Date:

Thursday, July 18, 2013

  Actual Average Record
Temperature  
Mean Temperature 64 °F -  
Max Temperature 77 °F 69 °F - ()
Min Temperature 51 °F 43 °F - ()
Degree Days  
Heating Degree Days 1    
Growing Degree Days 14 (Base 50)    
Moisture  
Dew Point 51 °F    
Average Humidity 58    
Maximum Humidity 88    
Minimum Humidity 29    
Precipitation  
Precipitation 0.03 in - - ()
Sea Level Pressure  
Sea Level Pressure 30.10 in    
Wind  
Wind Speed 6 mph ()    
Max Wind Speed 14 mph    
Max Gust Speed 21 mph    
Visibility 18.0 miles    
Events      
T = Trace of Precipitation, MM = Missing Value Source: Averaged Metar Reports

Daily Weather History Graph

Daily Weather History Graph

Search for Another Location

Airport or City:

Trip Planner

Search our weather history database for the weather conditions in past years. The results will help you decide how hot, cold, wet, or windy it might be!

Date:

Astronomy

Jul. 18, 2013 Rise Set
Actual Time 5:43 AM MDT 9:43 PM MDT
Civil Twilight 5:00 AM MDT 10:26 PM MDT
Nautical Twilight 3:58 AM MDT 11:27 PM MDT
Astronomical Twilight 2:16 AM MDT 1:38 AM MDT
Moon 5:41 PM MDT (7/18) 1:44 AM MDT (7/18)
Length of Visible Light 17h 26m
Length of Day
15h 59m
Waxing Gibbous, 78% of the Moon is Illuminated
Jul 18
Waxing Gibbous
Jul 22
Full
Jul 29
Last Quarter
Aug 6
New
Aug 14
First Quarter

Hourly Weather History & Observations

Time (MDT) Temp. Dew Point Humidity Pressure Visibility Wind Dir Wind Speed Gust Speed Precip Events Conditions
5:00 AM 53.6 °F 50.0 °F 88% 30.06 in 15.0 mi NNW 6.9 mph - N/A   Mostly Cloudy
6:00 AM 52 °F 48 °F 81% 30.09 in 19 mi NW 5.8 mph - -   Partly Cloudy
6:00 AM 51.8 °F 48.2 °F 88% 30.09 in 20.0 mi NW 5.8 mph - N/A   Mostly Cloudy
7:00 AM 53.6 °F 48.2 °F 82% 30.10 in 25.0 mi NW 6.9 mph - N/A   Mostly Cloudy
8:00 AM 59.0 °F 51.8 °F 77% 30.10 in 25.0 mi NW 5.8 mph - N/A   Mostly Cloudy
9:00 AM 66.2 °F 53.6 °F 64% 30.11 in 30.0 mi NW 11.5 mph - N/A   Mostly Cloudy
10:00 AM 68.0 °F 53.6 °F 60% 30.13 in 40.0 mi WNW 13.8 mph 20.7 mph N/A   Mostly Cloudy
11:00 AM 69.8 °F 51.8 °F 53% 30.14 in 40.0 mi WNW 11.5 mph - N/A   Mostly Cloudy
12:00 PM 71.6 °F 50.0 °F 46% 30.13 in 30.0 mi WNW 8.1 mph 17.3 mph N/A   Mostly Cloudy
1:00 PM 71.6 °F 53.6 °F 53% 30.12 in 30.0 mi West 3.5 mph - N/A   Mostly Cloudy
2:00 PM 73.4 °F 50.0 °F 44% 30.14 in 30.0 mi North 4.6 mph - N/A   Mostly Cloudy
3:00 PM 75.2 °F 48.2 °F 38% 30.13 in 30.0 mi Calm Calm - N/A   Mostly Cloudy
4:00 PM 75.2 °F 46.4 °F 36% 30.11 in 30.0 mi NW 3.5 mph - N/A   Scattered Clouds
5:00 PM 77.0 °F 53.6 °F 44% 30.09 in 30.0 mi Calm Calm - N/A   Scattered Clouds
6:00 PM 76 °F 50 °F 29% 30.08 in 28 mi South 4.6 mph - -   Scattered Clouds
6:00 PM 77.0 °F 50.0 °F 39% 30.08 in 30.0 mi SSW 4.6 mph - N/A   Scattered Clouds
7:00 PM 73.4 °F 51.8 °F 47% 30.08 in 30.0 mi SSE 9.2 mph - N/A   Scattered Clouds
8:00 PM 73.4 °F 53.6 °F 50% 30.07 in 30.0 mi SE 6.9 mph - N/A   Scattered Clouds
9:00 PM 68.0 °F 53.6 °F 60% 30.07 in 30.0 mi ESE 5.8 mph - N/A   Partly Cloudy
10:00 PM 62.6 °F 53.6 °F 72% 30.12 in 30.0 mi NNE 4.6 mph - N/A   Partly Cloudy